Wind_Speed
6 7 8 10 11 14 17 20 23 26 28 30 31 33 34 35 37 39 40 41 42 43 44 45 47 48 50 51 53 55 56 57 57 58 59 59 59 60 59 58 56 55 53 51 50 48 46 45 44 41 39 37 36 35 33 32 30 28 27 25 23 22 22 21 20 20 20 20 20 21 22 23 25 26 27 28 29 31 32 34 36 38 40 43 46 48 50 53
8 10 12 15 19 22 26 29 32 35 37 39 41 42 43 44 46 47 48 49 50 51 52 53 54 56 57 58 59 60 61 61 61 62 63 63 62 62 61 59 57 55 53 52 50 48 46 45 43 41 39 38 36 35 33 31 29 28 26 24 23 22 22 21 20 21 21 22 23 23 24 25 25 27 28 29 31 32 34 35 37 39 41 43 46 48 51 54
14 17 21 25 29 32 35 39 42 44 46 48 49 50 51 53 54 55 56 57 58 59 59 60 60 61 62 63 63 63 64 65 65 65 65 64 63 62 61 59 57 55 53 51 50 48 46 44 43 41 39 38 36 34 32 30 29 27 25 24 23 22 22 22 22 23 23 24 24 24 25 25 26 27 28 30 32 34 35 37 39 41 42 44 46 49 52 55
23 27 30 34 38 41 44 47 50 52 54 55 56 57 58 59 61 61 62 63 64 64 64 64 64 64 65 65 65 65 66 66 65 65 65 64 63 61 59 57 56 54 53 51 49 47 45 42 41 40 38 37 35 33 32 29 28 26 25 24 23 23 24 24 24 24 24 24 25 26 26 27 28 28 30 31 33 35 38 40 41 43 44 45 48 51 54 57
32 36 39 43 46 50 53 55 57 59 60 61 61 62 63 64 65 65 65 66 66 66 67 67 66 66 66 66 66 67 67 66 65 65 65 63 62 60 58 56 55 53 51 49 47 45 42 41 40 39 37 36 34 32 30 28 27 26 25 25 25 25 25 24 24 24 25 26 27 29 30 31 31 31 31 33 35 37 38 40 42 43 45 46 49 51 54 56
40 44 47 51 54 57 60 62 63 64 64 65 65 66 66 66 66 66 67 67 67 67 67 67 67 66 66 66 67 67 67 65 64 64 63 62 60 58 57 55 53 51 49 47 45 42 40 39 38 37 35 34 32 31 29 28 27 27 26 26 25 25 24 24 24 25 27 29 30 32 33 34 34 34 33 34 36 37 38 40 42 44 46 48 49 51 53 56
47 51 55 58 61 63 65 66 67 67 67 67 67 67 67 67 67 68 68 68 67 67 66 67 67 66 65 66 66 65 64 64 63 62 61 60 58 56 54 52 51 49 47 45 42 40 38 38 36 35 33 32 31 30 29 28 27 27 26 24 24 23 24 24 25 27 28 30 32 33 34 35 36 36 36 36 37 38 39 41 43 45 46 48 50 52 54 57
54 58 61 63 66 67 68 69 69 69 69 68 68 67 68 68 68 67 67 66 66 66 66 66 67 66 64 64 64 62 62 62 61 60 59 57 55 54 51 49 48 46 44 42 40 38 37 36 34 33 32 31 30 29 28 27 26 25 24 23 23 24 24 26 27 28 30 32 33 34 36 37 38 38 38 38 39 40 41 42 44 45 47 48 50 53 56 59
60 62 65 67 68 69 69 70 70 69 69 68 68 68 68 67 67 66 65 65 65 65 65 65 65 64 63 63 62 60 60 60 59 57 56 54 52 50 49 46 45 44 41 40 38 36 35 33 32 31 31 30 29 29 27 25 24 23 23 24 25 26 26 28 29 30 32 33 34 35 37 39 40 40 40 41 41 42 43 43 44 46 48 50 52 55 57 60
63 65 67 68 69 69 69 69 69 69 68 68 68 68 67 66 65 65 65 64 64 65 64 64 64 62 61 61 60 58 58 58 56 55 53 51 49 47 46 43 41 41 39 37 36 34 33 32 31 30 30 29 28 27 25 24 24 24 25 26 27 28 29 30 31 32 32 33 35 38 40 41 42 43 43 44 44 44 44 45 45 47 49 52 53 56 58 61
65 67 68 68 69 69 69 68 68 68 68 68 67 67 66 65 65 65 64 64 63 63 63 63 61 60 60 59 58 56 55 55 53 52 50 48 46 45 43 40 39 38 37 35 33 33 32 31 30 28 27 27 26 25 23 24 24 25 26 28 29 30 32 33 33 33 34 35 38 41 43 44 44 45 46 46 46 45 46 46 47 48 50 53 55 57 59 62
65 66 67 68 68 67 67 67 67 67 67 66 66 65 65 65 65 64 63 63 62 61 62 61 59 58 57 56 55 53 52 51 51 50 48 45 44 42 40 38 36 35 34 32 32 32 30 29 28 25 25 25 24 23 23 24 25 26 28 29 30 32 34 36 36 37 38 39 41 43 45 46 46 46 46 47 48 48 48 48 49 50 51 53 56 58 61 64
65 66 66 66 66 65 65 65 65 65 64 64 64 64 64 64 64 63 62 61 60 60 60 59 57 56 55 54 52 50 49 48 48 47 45 43 42 40 38 36 34 33 32 30 30 30 28 28 25 22 22 23 22 22 23 24 26 27 29 30 32 35 36 37 38 39 40 42 43 45 47 47 48 47 48 49 50 50 50 51 52 52 53 55 57 60 62 65
64 64 64 64 63 63 63 63 63 63 62 62 62 63 62 62 62 60 59 58 58 58 57 57 56 53 53 52 48 47 46 44 44 43 41 40 39 37 36 34 33 32 30 28 27 27 26 25 22 20 20 21 21 22 24 25 27 28 30 32 35 37 37 38 38 40 42 44 46 47 48 49 49 50 50 51 52 53 54 55 55 55 56 57 59 61 63 65
63 63 62 61 61 61 61 61 61 61 61 61 61 61 60 59 58 57 57 56 55 55 54 54 53 51 51 49 45 44 42 41 40 39 37 36 35 34 33 32 31 30 28 26 24 24 23 22 20 18 19 19 21 23 24 26 28 30 33 35 36 37 37 38 40 42 44 45 47 48 50 51 52 52 53 53 54 56 57 58 58 58 58 58 59 61 63 66
61 61 61 60 59 59 59 59 59 60 59 59 59 58 57 56 55 54 54 53 53 53 52 51 49 49 49 45 42 41 39 38 36 35 33 32 31 31 30 29 28 27 26 24 23 21 20 20 19 17 18 19 21 23 25 28 30 32 34 35 36 36 38 40 42 44 46 47 48 50 52 53 54 55 56 57 58 59 60 60 61 60 59 59 59 61 63 66
60 60 60 59 59 58 58 57 57 57 58 57 57 55 54 54 53 52 51 51 51 49 48 47 46 47 45 41 40 38 36 35 33 31 29 28 27 27 27 26 25 25 23 22 21 20 17 16 17 18 19 20 22 25 28 30 32 33 33 34 36 37 39 41 44 46 47 49 50 52 53 55 56 57 59 60 60 61 61 62 61 61 60 59 59 61 63 65
58 58 58 58 57 57 56 56 55 54 55 55 54 53 53 53 53 51 49 49 48 44 42 42 44 44 40 38 37 35 34 32 30 28 26 24 23 22 23 23 22 21 20 19 19 17 14 14 17 20 21 22 24 27 29 30 31 32 34 35 37 39 41 43 44 46 48 50 52 54 56 57 59 61 61 62 62 61 61 61 62 62 62 60 59 60 62 65
56 56 56 56 56 55 54 54 53 52 51 51 51 51 51 52 51 50 48 47 44 41 39 39 42 41 36 34 34 32 31 29 26 25 23 22 20 18 18 18 18 17 17 16 15 14 14 15 18 21 22 23 25 27 29 30 31 33 35 37 39 40 42 44 46 48 50 52 54 57 59 60 62 63 63 63 63 62 62 62 63 63 63 62 60 61 63 65
54 54 54 54 54 53 52 51 51 50 48 48 49 49 49 49 49 48 46 43 41 39 36 35 39 37 32 32 32 30 29 26 23 21 19 18 17 14 13 14 14 14 15 14 14 14 13 15 20 22 23 24 25 26 28 30 32 34 36 38 39 42 44 47 49 50 53 55 58 59 61 62 62 63 63 64 64 63 63 64 64 64 64 63 61 62 64 66
52 52 52 52 52 51 51 50 49 49 47 45 45 46 46 45 46 45 42 40 38 36 33 33 35 32 29 29 28 28 27 24 21 18 15 14 12 11 12 13 13 14 15 15 16 13 11 14 21 23 23 24 25 26 29 31 33 35 37 39 41 43 46 49 51 53 55 58 60 62 63 63 64 64 64 65 64 64 64 64 64 64 64 64 63 62 64 67
50 50 50 50 50 50 49 48 47 47 46 43 42 43 43 42 42 40 38 37 35 32 31 31 31 28 26 25 25 25 23 20 19 15 13 12 10 10 12 13 13 15 16 15 13 11 12 16 21 22 22 23 25 27 30 33 35 37 39 41 43 45 48 50 53 55 58 60 62 63 65 65 65 65 65 65 64 64 64 64 64 64 65 65 64 63 65 68
49 48 48 48 48 48 47 46 45 44 43 41 40 42 40 39 39 35 34 36 33 30 28 28 28 25 24 22 22 22 18 16 15 12 11 11 9 10 10 10 11 13 11 11 11 14 16 19 20 21 22 23 26 29 32 35 37 39 41 42 44 47 49 51 54 56 59 61 63 64 65 66 66 65 65 64 64 64 64 64 64 64 65 65 64 64 66 69
47 47 47 47 47 46 45 44 42 41 41 40 39 40 38 37 35 31 31 34 31 27 26 24 24 22 21 21 20 18 15 13 13 11 10 10 9 9 7 7 8 8 9 13 15 17 19 20 21 22 23 25 28 31 34 36 38 40 41 43 46 48 51 53 55 57 60 62 63 65 66 65 65 64 64 65 65 65 66 66 65 65 66 66 66 66 67 70
45 45 45 45 46 45 44 42 41 40 40 39 38 37 36 34 32 28 29 31 28 25 23 22 21 19 19 19 17 15 12 11 10 9 9 8 7 6 5 7 9 11 14 16 17 18 21 22 23 24 26 28 31 34 36 38 39 40 41 44 46 49 52 54 56 58 61 62 63 64 65 65 64 64 65 65 65 66 67 68 67 67 68 68 68 68 70 72
42 43 43 43 43 43 42 41 39 39 39 38 37 36 34 32 29 27 27 28 27 24 22 20 19 18 18 18 14 11 10 9 8 7 7 6 6 6 8 11 13 15 16 17 18 21 23 24 25 26 29 31 33 36 38 39 40 41 42 45 48 50 53 54 57 59 61 63 64 65 65 65 65 65 65 66 67 67 68 69 69 69 70 70 70 70 71 72
39 40 40 40 40 40 40 38 38 38 38 36 35 34 33 30 28 26 26 25 24 23 20 18 17 17 16 14 11 9 8 6 5 5 6 7 9 11 13 15 16 17 18 19 21 23 24 26 26 28 30 33 35 38 39 40 41 42 43 46 49 51 54 56 59 61 63 65 66 67 67 67 66 66 67 67 68 68 69 70 71 71 72 72 72 72 71 72
36 37 37 37 37 37 37 36 36 36 36 35 33 32 31 29 27 26 24 23 21 19 17 14 14 15 13 11 8 7 6 3 3 5 7 10 12 14 16 17 18 19 20 21 22 24 26 27 28 30 32 35 36 38 39 40 41 43 45 48 50 52 54 57 60 63 65 67 67 68 68 69 68 68 68 68 68 69 70 71 73 73 74 74 73 72 72 72
33 34 34 34 34 34 34 34 35 34 33 32 31 30 28 27 26 24 22 20 18 14 13 11 10 11 10 8 6 3 3 2 4 6 8 12 13 15 16 18 19 20 22 23 24 26 28 29 30 32 34 36 37 38 40 41 42 45 48 50 52 53 56 58 61 64 67 69 69 68 68 69 69 68 68 69 69 70 72 73 75 75 75 75 73 72 71 72
31 32 32 31 32 32 32 32 32 32 31 30 29 28 25 24 23 21 18 17 15 11 10 9 7 6 5 5 3 1 1 3 6 8 10 12 13 14 16 18 20 21 23 24 26 27 29 31 32 34 35 36 38 39 40 42 44 47 49 52 54 56 58 60 62 65 67 69 70 71 70 70 69 69 69 70 71 72 73 75 75 75 75 75 73 71 70 72
30 30 30 30 30 31 30 30 30 30 29 28 27 25 22 21 19 17 14 12 12 9 8 7 5 4 3 2 2 4 5 6 9 10 11 13 14 15 17 19 21 22 24 25 26 28 30 32 33 35 36 37 39 40 42 43 46 48 50 53 55 58 60 63 64 65 66 68 70 72 73 73 72 71 72 72 73 73 74 75 75 75 75 74 72 70 70 71
28 28 28 29 28 28 28 28 28 27 27 26 24 21 18 16 14 12 9 7 7 7 6 5 5 4 3 4 6 7 8 9 11 12 13 14 16 17 19 20 21 23 24 26 28 30 32 33 34 36 37 38 40 41 43 45 47 49 51 53 54 56 59 62 65 67 67 69 71 72 74 74 73 73 74 74 73 74 74 75 74 74 75 74 71 69 70 71
27 27 27 27 26 26 26 26 25 25 24 23 22 19 16 12 10 8 6 4 3 4 4 4 4 4 5 7 8 10 11 12 13 15 16 17 18 19 20 20 22 24 26 27 29 31 33 34 36 38 39 40 41 42 44 46 47 48 50 51 51 53 57 61 65 69 70 71 72 74 74 74 74 74 74 74 74 74 75 75 74 75 75 73 71 70 70 72
27 26 26 25 25 25 25 24 24 23 22 21 19 17 15 12 9 7 6 6 4 3 4 4 5 6 7 8 10 11 13 15 16 17 18 19 19 20 21 23 24 26 27 28 30 32 35 36 37 39 40 41 42 43 44 45 46 47 48 50 52 54 58 61 65 70 73 73 73 75 76 75 75 75 75 76 75 74 75 75 75 75 75 74 71 71 71 73
26 26 26 25 24 24 24 23 22 21 20 19 18 16 14 12 10 9 8 8 7 6 6 7 7 8 9 11 12 14 15 17 18 19 20 20 21 22 23 25 27 28 29 30 31 34 36 38 38 40 41 42 43 44 45 46 47 48 49 51 54 57 60 63 66 69 72 74 73 72 75 76 75 75 75 75 75 75 75 75 75 76 76 74 72 72 73 75
25 25 25 24 24 23 23 22 21 20 18 17 16 15 14 12 11 10 10 10 10 10 10 10 10 11 13 14 16 17 18 19 20 21 22 22 23 24 26 28 29 30 31 32 33 36 38 39 40 41 42 42 43 44 45 46 47 49 51 52 55 58 61 64 66 68 70 74 75 73 72 73 73 73 73 73 75 76 76 76 76 77 76 74 73 73 74 76
23 23 23 23 23 23 22 22 20 19 18 17 16 15 14 14 13 12 12 11 12 12 13 13 14 15 16 18 19 19 20 21 23 24 25 26 26 27 29 31 32 33 34 35 36 38 40 41 42 42 43 44 44 45 46 47 49 50 52 54 56 59 62 65 67 68 68 71 76 76 73 73 72 72 72 73 74 76 77 76 76 77 76 75 74 74 76 78
23 22 22 22 22 22 22 21 20 19 18 17 17 16 16 16 15 15 15 15 15 15 16 16 17 17 19 20 21 22 22 24 26 27 29 29 30 32 33 34 35 36 37 38 40 41 42 43 44 44 45 46 46 46 47 48 50 52 53 55 58 61 64 66 68 70 69 69 73 77 76 75 75 74 74 74 74 76 77 76 77 77 76 75 74 75 76 78
23 22 22 22 22 22 22 21 20 19 19 18 18 18 18 17 18 18 18 18 18 18 19 19 20 20 21 22 23 24 25 26 28 29 31 33 34 36 37 37 38 39 41 41 42 43 44 45 46 46 47 48 48 48 49 50 52 54 56 58 60 62 65 68 70 71 73 72 73 77 78 76 77 77 77 77 76 77 77 77 77 78 77 75 75 76 77 79
23 23 22 22 22 22 22 22 21 21 20 20 20 20 20 20 20 20 20 21 21 21 22 22 23 23 24 24 25 26 27 28 30 31 33 34 36 38 39 40 41 42 43 44 44 45 46 47 48 49 49 49 50 51 51 53 55 57 59 61 62 64 66 68 70 72 74 74 74 78 82 80 79 79 80 80 79 79 79 78 79 79 77 76 76 77 78 80
25 24 24 24 23 23 23 23 22 22 21 21 21 21 22 22 22 23 23 23 24 24 25 25 26 26 27 27 28 29 30 31 32 33 34 36 37 39 41 42 43 44 44 45 46 47 48 49 50 51 52 52 53 55 55 55 58 60 62 64 65 67 68 69 70 72 74 75 74 78 83 83 82 81 81 81 81 81 80 79 80 80 78 77 77 78 79 81
27 27 26 25 25 25 25 25 25 24 24 23 23 23 24 24 25 25 26 26 27 27 28 29 29 30 30 30 31 31 32 33 34 35 37 38 39 41 42 43 44 45 46 46 47 48 49 50 51 52 54 55 55 57 58 59 61 62 64 67 68 70 71 70 70 71 74 76 75 77 82 84 83 83 82 82 83 82 82 81 81 80 78 77 77 78 80 82
29 29 28 27 27 27 27 27 27 27 26 26 26 26 27 27 28 28 29 29 30 30 31 32 32 33 33 34 34 34 35 36 37 38 39 40 41 42 43 45 46 46 47 48 48 49 50 51 51 53 55 58 58 60 62 62 63 65 66 68 71 72 73 72 71 71 73 77 77 77 80 83 84 83 83 83 83 83 83 83 82 80 78 77 77 79 81 83
31 31 31 30 30 30 30 30 30 30 29 29 29 29 29 30 31 31 31 32 32 33 33 34 35 35 36 36 37 37 38 39 40 41 41 42 43 44 45 46 47 48 48 49 49 50 51 51 52 52 54 57 59 61 63 63 64 66 68 70 72 74 74 73 73 72 72 76 79 79 79 81 83 84 84 84 83 84 84 84 82 79 77 76 77 79 81 84
33 33 34 33 33 33 33 33 33 33 33 33 33 33 33 33 34 34 34 34 35 35 36 36 37 38 38 39 39 40 40 41 42 43 44 44 45 46 47 47 48 49 49 50 51 52 53 54 54 54 54 56 59 60 62 64 66 68 70 72 73 74 75 75 75 73 72 75 79 81 80 80 82 83 83 83 83 82 83 82 80 78 76 75 76 78 81 84
35 36 36 36 36 36 36 36 37 37 37 36 36 37 37 37 37 37 37 37 38 38 38 39 40 40 41 41 41 42 43 43 44 45 46 46 47 48 49 49 50 50 51 52 53 54 55 57 58 59 58 59 61 63 65 66 67 68 71 74 74 75 76 77 77 75 73 75 78 82 82 81 81 82 82 82 82 81 81 80 78 76 75 75 77 79 81 85
37 38 38 38 39 39 39 39 40 40 40 40 40 41 41 41 41 40 40 41 41 41 42 42 43 43 43 44 44 45 45 46 47 47 48 49 49 50 50 51 51 52 53 54 55 56 58 59 61 63 63 62 64 66 68 69 68 68 71 73 75 75 76 78 78 77 76 77 77 81 84 84 83 84 83 83 82 82 81 79 77 75 75 76 78 80 83 86
39 39 40 40 41 41 42 42 42 43 43 44 44 44 44 44 44 44 44 44 44 45 45 45 46 46 46 47 47 47 48 48 49 50 50 51 52 52 53 53 54 54 55 56 57 58 59 60 62 65 67 66 66 68 70 70 70 69 70 73 75 76 78 79 79 78 78 78 79 81 85 85 84 85 85 84 84 83 81 80 78 76 76 78 80 82 85 88
41 41 42 42 42 43 44 44 44 45 46 47 47 48 48 48 48 48 48 48 48 48 48 49 49 49 50 50 50 50 51 51 52 52 53 53 54 55 55 55 56 57 57 58 60 60 60 62 63 65 69 70 69 70 71 72 72 70 70 73 75 77 80 81 81 79 77 78 80 82 83 84 84 85 85 85 84 83 81 79 78 78 78 80 82 84 86 88
43 44 44 44 44 45 45 46 46 47 48 49 49 50 50 51 51 52 52 52 52 53 52 52 52 53 53 53 53 53 54 54 55 55 56 56 56 57 57 58 58 59 60 61 62 63 62 64 64 64 68 71 71 72 73 74 73 71 71 74 76 79 81 84 83 80 77 77 80 82 82 82 83 84 85 85 84 82 79 78 78 79 80 81 83 85 86 89
44 45 45 46 47 47 48 48 49 49 50 50 51 52 52 53 53 54 55 55 55 56 56 56 56 56 56 56 56 56 57 57 57 58 58 58 59 60 60 61 61 62 63 64 65 66 65 66 66 66 67 70 71 71 73 75 74 72 72 74 77 80 83 85 84 82 79 78 79 81 82 82 81 82 83 84 83 81 78 77 77 79 81 82 84 85 87 89
45 46 46 47 48 49 49 50 51 52 52 53 53 54 54 55 55 56 56 57 57 57 58 58 58 58 58 58 59 59 59 59 60 60 61 61 62 62 63 64 64 65 66 66 67 68 68 68 68 68 67 69 70 69 70 73 74 72 72 74 77 80 83 85 86 84 82 80 81 82 82 82 81 82 81 81 80 79 77 76 76 78 81 83 84 86 88 90
Wind_Direction
203 189 178 168 159 151 144 138 131 125 121 119 117 116 115 115 115 113 113 113 113 114 115 115 116 116 116 115 115 114 114 114 114 114 113 113 112 112 111 110 110 110 109 108 108 107 106 106 106 105 105 103 101 99 97 95 93 90 88 85 82 78 73 68 62 56 49 42 35 29 24 20 17 13 11 9 8 6 6 4 3 3 3 3 3 2 1 1
151 146 142 138 134 132 128 124 121 118 116 115 115 114 114 113 113 112 112 113 113 113 113 113 114 114 113 113 113 114 114 114 114 113 113 113 112 111 111 110 110 110 109 109 108 108 107 107 106 105 104 102 99 97 95 93 91 89 86 82 78 72 67 62 55 49 42 35 29 23 19 15 12 9 7 6 5 4 3 3 2 2 2 1 0 0 0 360
126 127 127 126 125 123 120 118 116 115 114 114 113 113 113 112 112 112 112 112 112 112 112 112 113 113 113 113 114 115 114 114 114 114 113 112 112 111 111 111 111 111 110 109 109 108 107 107 106 105 103 101 99 97 94 92 89 86 83 79 73 68 61 53 46 40 34 28 23 19 14 11 7 6 4 3 2 1 1 1 1 1 1 0 359 360 360 0
120 121 122 121 120 118 117 116 114 114 113 113 113 113 113 113 113 113 113 113 113 113 113 113 113 113 113 114 115 114 113 113 114 114 113 112 112 112 112 112 111 111 110 109 108 107 107 108 107 105 103 101 99 96 93 90 88 84 80 74 67 60 53 46 40 34 28 24 19 15 11 8 5 3 1 1 1 0 360 0 0 360 360 360 359 359 360 360
118 119 119 118 117 116 115 114 113 113 113 113 113 113 114 114 114 114 114 114 114 114 114 113 113 113 114 114 114 113 113 114 114 113 113 113 113 112 112 112 111 111 110 109 108 109 110 109 107 104 102 100 98 94 92 89 86 80 73 65 58 52 46 41 36 31 25 20 16 12 9 6 4 2 360 359 359 360 359 358 359 358 358 359 359 359 358 358
118 118 117 116 115 114 114 113 114 114 114 114 114 114 115 116 116 115 115 115 114 114 114 114 113 114 114 114 113 114 114 114 114 113 113 113 113 112 112 112 112 111 111 110 110 111 111 108 105 104 102 99 96 92 89 85 78 71 64 58 53 47 42 37 31 26 22 18 14 10 7 5 3 1 359 358 358 358 358 357 357 358 358 358 358 357 357 358
118 117 116 115 115 114 114 114 115 115 115 115 116 116 116 116 116 115 115 115 114 114 114 114 114 114 114 114 114 114 114 114 114 114 114 113 113 113 113 113 113 113 112 111 112 112 110 106 104 103 100 96 92 87 82 76 70 66 60 56 50 44 38 32 26 22 19 16 12 9 6 3 2 1 359 358 357 357 357 356 356 357 357 357 356 356 357 358
116 116 116 115 115 115 115 116 116 116 117 117 117 117 116 116 116 115 115 115 115 114 114 114 114 114 115 115 115 115 115 114 114 114 114 114 114 114 114 115 114 113 112 112 111 110 107 105 103 100 94 89 84 78 74 70 67 62 58 52 45 37 31 26 22 18 15 13 11 8 5 3 2 1 0 358 357 356 356 356 356 356 356 356 355 356 357 358
116 116 116 116 116 116 117 117 118 118 118 118 117 116 116 116 116 116 115 115 115 115 115 115 115 116 116 115 116 116 115 115 115 115 115 115 115 116 115 115 114 113 113 112 110 108 105 102 98 93 86 81 77 73 69 66 61 56 51 45 38 31 25 22 19 16 13 11 9 7 6 4 3 2 1 359 357 357 356 355 355 355 355 356 355 356 356 357
117 117 117 117 117 118 118 119 119 119 118 118 118 117 117 116 116 116 116 116 116 116 116 117 118 118 117 116 117 117 117 116 117 117 116 116 116 116 115 115 115 113 112 110 109 105 100 95 90 85 81 77 73 69 64 60 54 48 43 38 32 26 22 18 16 14 11 9 7 6 6 4 3 2 2 0 358 357 355 355 354 354 355 356 355 355 355 357
117 118 118 118 119 119 120 120 120 119 119 119 118 118 118 118 118 117 117 118 118 118 118 118 118 118 117 117 118 118 118 118 118 117 116 117 117 115 115 115 115 112 110 108 105 99 93 88 84 81 78 74 70 65 59 53 47 40 35 31 26 22 18 15 13 11 9 8 7 6 5 4 3 2 1 0 358 357 355 355 355 354 354 355 355 355 355 356
118 119 119 119 120 120 120 120 120 120 120 119 119 119 119 119 119 119 119 119 119 119 119 119 119 118 118 118 119 119 120 119 119 118 118 119 117 115 115 114 113 109 106 103 98 92 89 86 81 78 76 70 65 59 52 46 40 34 29 25 21 18 15 13 10 9 7 7 6 5 4 3 2 1 0 360 358 357 356 356 355 355 354 354 354 354 355 355
119 119 120 120 121 120 120 120 120 120 120 120 120 120 120 120 120 121 121 121 121 120 119 120 120 119 120 119 119 120 121 120 120 119 120 120 117 115 115 112 110 105 100 97 94 90 87 83 78 74 71 65 59 53 46 40 35 30 25 20 18 15 13 10 8 7 5 5 5 4 3 2 1 360 359 359 358 357 357 357 356 355 354 354 354 354 355 354
120 120 120 120 120 120 120 120 120 120 120 120 120 120 121 121 122 122 122 122 121 121 121 120 121 122 120 119 120 121 121 121 120 120 120 119 117 116 114 111 108 102 97 95 92 89 85 80 75 71 65 59 53 47 40 34 29 25 21 18 15 13 10 7 6 5 4 4 4 3 1 0 359 359 359 358 357 357 358 357 356 355 354 354 354 354 354 354
121 120 120 120 120 120 120 121 121 121 121 121 121 121 122 123 123 123 122 123 122 121 122 122 123 124 119 119 122 121 120 119 118 118 117 117 117 115 113 110 106 102 98 94 89 86 83 78 71 64 58 51 44 39 34 29 25 21 18 15 13 10 7 4 3 4 4 3 3 1 360 359 358 359 359 357 357 358 358 357 356 355 354 353 353 353 353 354
121 121 121 120 121 121 121 122 122 122 123 123 123 124 124 123 123 122 122 123 122 122 123 124 125 122 118 121 122 119 119 117 116 116 115 116 115 113 110 107 104 101 98 94 88 82 77 73 66 57 48 41 36 32 28 25 22 19 16 12 9 6 4 3 3 4 3 2 1 0 359 358 358 358 358 358 357 357 357 357 356 355 353 353 353 353 353 353
122 122 122 122 122 123 123 124 124 124 124 125 125 125 125 124 124 123 123 123 123 125 126 126 125 120 119 122 121 119 118 116 115 114 115 114 113 110 108 105 101 97 93 90 85 76 66 64 61 49 39 31 26 25 24 22 19 16 12 8 5 4 3 3 3 3 2 1 0 359 359 358 357 358 358 358 357 357 356 356 355 354 353 352 352 352 352 353
122 123 123 124 124 125 125 125 126 126 126 126 126 126 126 125 125 124 124 124 125 127 127 127 123 118 120 123 121 120 118 115 114 113 113 110 107 105 103 101 97 94 87 79 74 66 54 51 50 41 31 22 19 20 20 18 15 12 9 5 3 2 2 2 2 2 2 1 360 359 358 357 357 358 358 358 357 355 355 354 353 353 353 352 351 351 351 352
124 124 125 125 126 126 126 127 127 127 126 127 127 127 127 126 126 126 127 127 128 128 128 128 121 118 124 125 122 121 115 112 110 109 107 104 101 96 95 95 92 86 78 70 64 55 40 36 40 34 24 15 13 16 16 14 11 9 6 3 1 0 0 1 1 2 1 0 360 359 358 358 358 357 356 356 355 354 353 353 353 353 353 351 350 350 352 352
126 126 127 127 127 128 128 128 128 128 127 127 128 128 127 126 127 129 129 129 129 128 129 126 120 122 130 126 121 118 112 107 104 101 98 96 92 86 81 80 77 73 71 65 54 41 18 20 32 27 18 10 7 10 12 10 8 6 4 1 359 359 359 360 0 1 0 360 359 359 358 357 357 356 355 355 354 353 353 352 353 353 352 351 350 351 352 352
128 128 128 128 129 129 130 130 130 129 129 130 130 128 127 128 129 130 130 129 129 129 130 126 122 127 129 123 119 114 109 107 105 101 97 91 85 79 67 57 55 56 53 46 40 22 348 9 26 20 12 4 360 4 8 7 5 3 1 359 358 358 359 359 359 359 359 359 359 358 357 356 356 355 355 354 352 352 352 352 352 352 351 350 350 351 351 351
130 130 130 130 131 131 132 132 132 132 132 132 131 129 129 130 130 131 132 130 129 131 131 128 126 129 126 121 115 109 106 107 104 103 100 92 81 70 56 40 34 38 36 32 28 5 350 13 21 13 5 357 355 0 5 5 3 1 359 357 357 357 358 358 358 358 358 358 358 357 356 355 355 354 353 352 351 351 352 351 351 351 351 351 351 350 350 351
133 133 133 133 133 134 134 134 134 134 133 133 133 131 132 131 131 135 135 131 131 134 133 130 129 128 124 117 109 104 104 103 101 102 98 88 73 58 46 30 28 32 25 18 17 7 3 10 12 7 359 351 353 360 3 3 1 359 357 356 356 356 357 357 357 358 358 357 356 356 355 354 353 352 351 350 350 351 351 350 351 351 351 351 350 350 350 352
136 136 136 136 137 137 137 137 137 136 136 136 136 135 134 134 136 141 138 133 135 137 134 131 129 126 120 112 104 104 107 103 100 99 91 80 65 52 38 26 26 22 11 10 11 6 360 1 4 0 351 349 354 360 2 1 360 357 355 355 356 355 356 356 357 357 357 356 355 355 354 352 351 350 350 349 350 351 351 350 351 352 352 351 350 350 351 353
138 139 139 140 140 140 140 140 140 140 139 140 140 138 138 138 141 145 140 136 139 139 136 134 131 125 117 107 101 103 104 98 93 88 81 72 57 42 22 14 11 7 7 6 3 359 354 355 357 351 348 351 354 359 0 358 357 355 353 355 355 355 355 356 356 356 356 354 354 353 352 350 350 349 349 349 350 351 350 350 350 352 352 351 350 351 353 354
141 142 143 143 143 143 143 144 144 143 143 144 143 142 142 144 146 147 144 141 141 142 142 141 133 122 111 103 100 99 91 83 80 73 65 53 27 10 7 7 4 2 360 358 357 354 350 350 349 347 349 350 354 358 357 355 355 353 353 354 354 354 355 355 355 355 354 352 352 351 350 349 349 348 348 349 351 351 350 350 350 352 352 351 351 352 354 354
144 145 146 147 146 146 147 147 147 147 147 148 147 147 148 150 151 151 150 148 147 148 148 143 130 118 109 105 105 101 87 71 57 45 32 20 3 358 0 359 358 355 352 353 353 347 344 344 343 345 348 349 354 356 353 353 353 351 352 354 354 354 354 354 354 353 352 351 351 350 348 348 347 348 348 349 350 350 350 350 351 352 352 351 351 352 353 354
147 149 150 150 150 150 150 151 151 151 152 152 152 153 155 156 157 158 157 154 154 153 146 139 128 119 115 113 111 101 86 56 23 15 2 359 356 355 355 350 348 348 347 347 344 340 339 339 340 344 347 349 353 352 351 351 350 349 352 353 353 354 354 354 353 352 351 350 350 348 347 346 346 347 348 349 350 350 350 351 352 352 352 351 352 352 353 353
150 152 153 154 154 154 154 155 155 156 157 156 157 160 161 162 163 165 164 157 156 156 145 139 132 121 119 120 119 109 84 7 341 346 347 348 349 350 346 340 339 341 341 339 337 337 336 336 340 344 345 348 350 349 349 349 348 350 352 352 352 353 353 353 353 351 349 348 347 346 346 346 346 347 348 348 349 350 351 352 352 352 351 351 351 352 352 352
153 155 157 158 158 158 159 159 159 160 161 161 162 166 167 168 169 170 170 161 158 162 152 149 149 133 125 127 135 181 298 320 321 329 335 338 340 337 332 331 334 336 335 333 332 333 332 334 339 341 342 346 347 347 347 347 348 350 351 351 352 352 352 352 351 350 348 347 345 345 345 345 346 346 347 348 350 351 352 352 352 351 350 350 351 351 351 352
157 159 161 162 162 162 163 163 164 165 165 166 168 171 172 173 176 177 175 163 159 168 166 165 175 173 175 216 261 276 293 307 310 317 324 326 325 322 322 327 330 330 328 326 327 329 331 333 335 337 340 343 344 345 345 346 347 349 351 352 352 351 351 350 349 348 347 345 344 344 344 344 345 346 347 349 350 350 352 352 351 351 350 350 350 350 351 351
161 163 164 166 167 167 168 168 170 170 171 173 175 179 180 179 183 187 188 173 160 170 180 184 201 220 237 264 280 288 296 302 303 308 314 314 315 317 320 323 322 321 320 321 325 328 329 330 331 335 338 341 342 343 344 345 347 349 351 351 351 350 349 348 346 346 345 345 344 344 344 344 345 346 348 349 349 350 351 351 350 350 350 349 349 350 350 351
165 167 168 169 171 172 173 174 175 176 177 180 183 188 192 194 197 200 208 215 186 180 200 215 232 252 269 278 286 292 297 300 301 305 308 309 310 312 312 313 314 315 316 320 324 325 325 327 330 334 336 338 340 341 342 344 345 347 349 349 348 348 348 347 346 344 344 345 345 344 344 344 345 346 347 348 349 350 350 350 350 349 349 348 348 349 350 351
170 171 172 174 175 177 179 179 181 183 184 188 192 197 202 206 213 220 232 247 248 232 240 257 267 275 282 287 291 294 296 298 302 303 303 302 304 305 307 310 312 312 314 318 321 321 322 325 329 332 334 335 337 338 340 341 343 345 346 346 346 347 347 347 346 345 344 344 345 344 343 344 345 347 347 347 348 349 349 349 350 349 349 348 348 349 349 351
174 176 177 179 181 183 185 186 187 188 190 194 198 205 211 213 219 229 241 252 260 265 263 267 276 283 287 290 294 295 297 299 300 299 298 299 302 306 308 309 308 309 312 316 318 319 321 324 327 329 331 333 335 335 337 339 342 344 345 345 345 346 346 346 346 345 343 342 343 344 343 343 345 346 346 346 346 347 349 349 349 349 348 348 347 348 349 351
180 181 182 184 187 189 190 192 193 195 198 202 206 213 220 224 230 239 248 252 256 265 271 272 276 281 286 289 292 294 297 298 296 296 296 299 303 306 305 304 305 308 312 315 317 318 319 322 325 327 329 331 332 333 335 338 340 342 343 343 344 345 345 345 344 344 343 342 341 342 343 343 344 345 344 345 346 346 348 349 349 349 348 347 347 348 349 351
188 189 189 190 193 194 196 198 201 204 208 213 219 226 232 237 243 250 260 264 262 264 268 271 274 278 283 287 290 292 294 294 294 295 297 301 303 304 303 303 306 309 312 315 316 317 318 320 323 325 327 328 330 332 334 336 338 340 341 342 343 343 343 343 342 342 342 342 340 339 341 342 343 344 343 345 346 347 347 348 348 348 347 346 347 348 349 351
196 197 198 199 201 202 204 207 210 214 219 223 229 236 242 247 251 257 264 271 274 273 271 271 273 276 281 284 287 289 291 292 293 295 298 300 301 302 303 305 308 311 312 314 315 316 318 320 322 324 325 326 328 330 333 335 337 338 339 341 341 341 341 341 341 340 340 342 341 338 339 341 342 342 343 345 347 347 346 347 348 347 347 346 347 348 349 350
204 205 206 208 210 211 213 215 219 223 227 232 238 243 249 254 257 261 265 270 274 276 276 276 276 278 281 284 286 287 289 291 292 294 296 298 299 301 303 305 307 309 311 312 314 315 317 319 320 322 324 325 327 329 332 334 335 337 338 339 339 340 340 340 340 339 339 341 341 339 338 341 341 342 343 344 346 347 346 347 347 347 346 346 347 348 349 350
212 214 215 216 218 219 220 222 225 229 233 236 240 245 251 256 259 263 266 269 272 275 277 278 278 280 282 284 285 287 289 290 292 293 295 296 298 300 302 304 306 308 310 311 313 315 317 318 319 321 323 325 326 328 331 333 334 336 336 337 337 337 338 339 339 339 338 339 341 340 339 340 341 342 343 343 345 346 345 346 347 347 346 347 347 348 348 349
219 221 223 225 227 228 229 230 233 236 240 243 246 249 253 258 263 266 269 272 275 277 279 280 281 282 283 284 286 287 289 290 291 293 295 297 299 300 302 303 305 307 309 310 312 314 316 317 318 320 322 324 326 327 329 332 334 335 335 334 335 336 337 338 338 338 337 338 341 342 339 339 340 341 342 343 344 344 344 345 346 347 346 347 347 347 347 347
225 227 229 231 233 234 236 238 241 243 246 249 252 255 259 262 266 270 273 275 277 279 281 282 283 284 285 287 288 289 290 291 292 295 297 298 300 301 302 303 305 307 309 310 312 313 315 316 318 320 321 323 325 326 328 331 332 333 333 333 333 334 335 336 337 338 337 337 339 342 340 339 339 340 341 342 343 343 343 345 346 346 346 346 346 346 346 346
229 231 234 236 237 239 241 243 245 248 250 253 255 258 261 264 267 270 273 275 277 279 281 283 284 285 287 288 289 290 291 292 294 296 298 300 301 302 303 304 305 307 309 310 311 313 314 316 317 319 321 322 324 326 327 329 331 331 331 331 332 333 334 334 335 337 338 337 338 340 340 339 338 339 341 342 342 342 342 344 346 345 345 345 345 345 345 345
233 235 237 239 241 243 245 246 249 251 254 256 258 260 263 265 268 271 273 275 277 279 281 283 284 285 286 288 289 290 291 292 294 297 299 300 302 303 303 304 306 307 309 310 311 312 313 314 316 318 319 320 322 324 325 327 328 329 329 330 332 332 333 333 334 336 338 338 337 338 339 339 338 339 340 340 341 341 342 343 344 344 344 345 344 344 344 344
236 237 239 241 243 245 247 248 251 254 257 259 261 263 265 267 269 272 274 276 278 279 281 283 284 285 286 288 289 290 291 292 294 297 299 301 302 303 304 305 306 308 309 310 311 312 313 314 315 316 318 319 320 322 323 325 327 329 329 330 331 331 332 332 332 334 337 338 337 336 337 338 338 338 339 339 340 341 341 342 342 343 343 344 344 344 344 343
238 240 242 243 245 247 249 250 253 255 258 261 264 265 267 268 270 272 275 277 278 280 282 283 285 286 287 288 289 290 291 293 295 297 299 301 302 303 304 305 306 308 309 310 311 312 313 314 315 316 318 320 321 322 324 325 327 329 329 329 330 330 331 330 330 333 336 337 337 335 335 337 338 337 337 338 338 340 340 340 341 341 342 342 343 343 343 343
241 243 245 246 248 249 251 252 254 257 260 263 265 267 268 269 271 273 275 277 279 281 282 284 285 286 287 289 290 291 292 294 295 297 299 300 302 303 304 305 306 307 308 309 310 311 313 314 316 316 318 320 321 322 323 324 326 328 328 328 328 329 329 329 329 332 335 335 335 335 334 336 337 336 336 337 338 339 339 339 340 340 340 341 342 342 342 343
245 247 248 249 251 252 253 255 256 258 260 263 266 268 269 270 272 274 275 277 279 281 283 284 286 287 288 289 290 291 292 294 295 297 298 300 301 302 303 304 305 306 307 308 309 311 312 313 315 316 317 318 320 321 322 323 324 326 327 327 327 327 328 328 328 331 333 333 334 335 335 335 336 336 336 336 337 338 339 338 338 339 339 340 341 342 342 342
248 249 251 252 253 254 256 257 258 260 261 264 266 268 270 271 273 274 276 278 280 282 283 284 286 287 288 289 290 291 292 293 295 296 297 299 300 301 302 303 304 305 306 307 308 309 311 312 313 315 315 317 319 320 320 321 323 325 326 326 326 326 327 327 327 329 331 332 333 334 334 334 335 335 335 335 336 337 338 337 337 338 338 340 340 341 341 341
249 250 252 253 254 255 257 258 259 261 262 264 267 268 270 271 273 275 276 278 280 281 283 284 285 286 287 288 289 290 291 293 294 295 296 298 299 300 301 302 303 304 305 306 307 308 309 310 311 313 314 315 317 319 319 320 321 323 325 325 325 326 327 326 325 326 329 331 332 332 332 333 334 334 334 335 335 336 337 336 336 337 338 338 339 340 340 340
251 252 253 254 255 256 257 258 260 261 263 264 266 268 270 271 273 274 276 278 279 281 282 283 285 286 287 288 289 289 290 292 293 294 295 297 298 299 300 301 302 303 304 305 306 307 308 309 310 311 312 313 315 317 318 318 319 322 324 324 324 325 325 325 323 324 327 330 331 331 331 332 333 333 334 334 333 335 336 336 336 336 336 337 338 339 339 339
253 254 255 256 257 258 259 260 261 262 263 265 266 268 269 271 272 274 275 277 278 279 281 282 283 285 286 287 288 289 290 291 292 293 294 295 296 298 299 300 301 302 303 304 305 305 306 307 308 309 311 312 313 314 316 316 317 319 322 322 322 323 323 324 323 323 326 329 330 330 330 331 332 333 333 333 332 333 334 334 334 335 335 336 337 338 338 338
Height
10663 10664 10665 10666 10667 10668 10670 10672 10674 10676 10678 10679 10681 10683 10684 10686 10687 10689 10690 10691 10693 10694 10695 10696 10698 10699 10701 10703 10705 10707 10710 10713 10716 10719 10722 10725 10728 10731 10734 10737 10740 10743 10745 10748 10750 10752 10754 10755 10756 10758 10760 10761 10762 10762 10763 10764 10765 10765 10765 10766 10766 10766 10765 10765 10764 10763 10762 10760 10758 10756 10753 10751 10748 10745 10742 10739 10736 10733 10729 10725 10721 10716 10711 10706 10701 10696 10691 10686
10664 10664 10665 10666 10668 10670 10672 10674 10676 10677 10679 10681 10683 10685 10687 10688 10690 10691 10693 10694 10696 10697 10699 10700 10702 10703 10705 10707 10710 10712 10714 10717 10720 10722 10725 10728 10731 10733 10736 10740 10743 10745 10748 10750 10752 10754 10756 10758 10758 10760 10761 10762 10763 10763 10764 10765 10766 10766 10767 10767 10767 10766 10766 10765 10764 10763 10761 10759 10756 10754 10752 10749 10747 10744 10741 10737 10734 10730 10726 10722 10718 10713 10708 10703 10698 10693 10688 10682
10665 10665 10667 10668 10670 10672 10674 10676 10678 10680 10682 10684 10686 10688 10690 10691 10693 10695 10697 10698 10699 10701 10703 10705 10707 10707 10709 10712 10715 10718 10719 10721 10724 10726 10729 10732 10734 10736 10740 10743 10745 10748 10750 10753 10754 10756 10758 10760 10760 10761 10762 10763 10764 10765 10766 10767 10767 10768 10768 10768 10768 10767 10766 10765 10763 10761 10759 10757 10755 10753 10751 10748 10745 10742 10738 10735 10731 10727 10723 10719 10714 10709 10704 10699 10694 10689 10683 10677
10667 10668 10670 10671 10673 10675 10676 10678 10680 10683 10685 10687 10690 10692 10694 10696 10697 10699 10701 10702 10703 10705 10707 10709 10712 10713 10714 10717 10720 10722 10723 10726 10729 10730 10732 10735 10737 10740 10743 10746 10749 10751 10753 10755 10757 10758 10760 10762 10761 10762 10763 10764 10765 10766 10767 10768 10768 10769 10769 10768 10768 10766 10765 10763 10762 10760 10759 10757 10755 10752 10750 10747 10743 10739 10736 10732 10728 10724 10719 10714 10710 10705 10700 10695 10690 10684 10677 10672
10670 10672 10673 10674 10676 10677 10679 10682 10684 10687 10689 10692 10694 10696 10698 10700 10702 10703 10705 10707 10708 10710 10712 10714 10716 10719 10721 10723 10725 10726 10728 10732 10734 10733 10736 10738 10741 10744 10747 10750 10752 10754 10756 10757 10759 10761 10762 10763 10763 10764 10765 10766 10766 10767 10768 10769 10769 10769 10768 10767 10766 10765 10764 10763 10762 10760 10758 10756 10753 10750 10746 10743 10740 10736 10732 10728 10724 10720 10715 10711 10706 10701 10696 10691 10685 10679 10674 10668
10674 10675 10676 10677 10679 10681 10683 10686 10689 10692 10694 10697 10699 10701 10703 10705 10706 10708 10709 10711 10713 10715 10717 10718 10721 10724 10727 10728 10729 10731 10732 10736 10737 10738 10740 10742 10745 10748 10751 10753 10755 10757 10758 10759 10761 10763 10764 10764 10765 10765 10766 10767 10768 10768 10769 10769 10769 10768 10767 10767 10766 10765 10764 10763 10761 10759 10756 10753 10750 10747 10744 10740 10737 10733 10729 10725 10721 10716 10712 10707 10703 10697 10692 10686 10681 10676 10671 10665
10677 10678 10679 10681 10683 10685 10688 10691 10694 10696 10699 10701 10704 10706 10708 10709 10711 10713 10714 10716 10718 10721 10723 10724 10726 10729 10732 10732 10734 10737 10737 10739 10741 10742 10745 10747 10749 10752 10755 10757 10758 10759 10760 10762 10764 10766 10766 10766 10767 10767 10768 10768 10768 10769 10769 10768 10768 10768 10768 10767 10767 10766 10764 10762 10760 10757 10755 10752 10749 10745 10742 10739 10735 10731 10726 10722 10717 10713 10709 10704 10699 10693 10688 10683 10678 10673 10667 10660
10681 10682 10684 10686 10688 10691 10693 10696 10699 10701 10704 10706 10708 10710 10712 10714 10716 10718 10720 10722 10724 10726 10728 10729 10730 10734 10737 10737 10739 10742 10742 10743 10745 10747 10749 10751 10754 10756 10758 10761 10761 10762 10763 10765 10766 10768 10768 10768 10769 10769 10769 10769 10769 10769 10768 10769 10769 10769 10769 10768 10767 10765 10764 10761 10759 10756 10753 10750 10747 10744 10740 10736 10732 10728 10723 10719 10714 10710 10705 10700 10695 10690 10685 10680 10674 10668 10662 10655
10686 10688 10690 10692 10694 10696 10699 10701 10703 10706 10708 10710 10713 10715 10717 10719 10721 10723 10725 10727 10729 10730 10732 10734 10735 10738 10740 10741 10744 10746 10746 10748 10750 10752 10754 10755 10758 10760 10762 10764 10765 10765 10767 10767 10769 10769 10770 10770 10771 10770 10769 10769 10769 10769 10770 10770 10770 10769 10769 10767 10766 10764 10762 10760 10757 10754 10751 10748 10745 10742 10738 10734 10730 10725 10721 10716 10711 10706 10702 10697 10692 10687 10682 10676 10670 10663 10657 10651
10692 10694 10696 10698 10700 10702 10704 10706 10708 10711 10713 10715 10717 10719 10722 10724 10727 10729 10730 10732 10733 10734 10736 10738 10740 10742 10744 10745 10748 10751 10751 10752 10754 10756 10758 10760 10762 10763 10765 10767 10768 10768 10769 10770 10771 10771 10771 10771 10772 10771 10770 10771 10771 10771 10772 10772 10771 10770 10768 10766 10765 10763 10761 10758 10755 10752 10750 10747 10743 10739 10735 10731 10726 10722 10717 10713 10708 10703 10699 10694 10689 10684 10677 10671 10665 10659 10653 10647
10698 10700 10702 10704 10706 10708 10710 10712 10714 10715 10717 10720 10722 10724 10726 10729 10731 10733 10735 10737 10738 10739 10740 10742 10744 10746 10748 10750 10752 10755 10756 10756 10758 10759 10761 10763 10765 10766 10768 10770 10771 10771 10772 10772 10772 10772 10772 10772 10773 10773 10773 10773 10773 10773 10773 10772 10771 10769 10767 10766 10764 10762 10759 10756 10753 10751 10748 10744 10740 10735 10731 10727 10722 10718 10714 10710 10706 10701 10696 10691 10685 10679 10673 10668 10661 10655 10648 10641
10705 10707 10708 10710 10711 10713 10715 10717 10719 10721 10723 10725 10727 10729 10731 10733 10735 10737 10739 10741 10743 10744 10744 10746 10749 10751 10752 10755 10756 10759 10760 10760 10761 10762 10764 10767 10768 10769 10771 10772 10773 10773 10774 10774 10774 10773 10773 10774 10774 10775 10775 10774 10774 10774 10773 10772 10770 10769 10767 10765 10763 10760 10757 10754 10751 10747 10744 10741 10737 10733 10728 10724 10720 10716 10712 10708 10703 10698 10693 10687 10681 10676 10670 10664 10657 10650 10643 10636
10711 10713 10714 10716 10718 10719 10721 10723 10724 10726 10728 10730 10732 10734 10736 10738 10740 10742 10744 10745 10747 10748 10749 10750 10753 10756 10756 10758 10761 10763 10764 10765 10765 10765 10768 10769 10769 10771 10772 10774 10775 10775 10775 10776 10775 10775 10775 10775 10776 10778 10777 10776 10776 10775 10773 10772 10770 10768 10766 10765 10762 10758 10755 10752 10749 10746 10742 10738 10734 10730 10726 10722 10719 10715 10710 10705 10700 10694 10689 10683 10677 10671 10666 10659 10652 10645 10637 10631
10717 10719 10720 10722 10724 10725 10727 10729 10730 10732 10734 10735 10738 10739 10742 10743 10744 10746 10748 10750 10751 10752 10754 10754 10757 10760 10759 10761 10765 10767 10768 10769 10769 10769 10771 10772 10772 10773 10774 10774 10775 10775 10776 10777 10777 10777 10777 10777 10778 10779 10778 10777 10776 10775 10773 10771 10770 10768 10765 10763 10759 10757 10754 10752 10749 10746 10741 10736 10732 10728 10725 10721 10716 10712 10706 10701 10696 10690 10683 10677 10672 10666 10660 10654 10647 10640 10633 10627
10722 10724 10726 10728 10730 10731 10733 10734 10735 10737 10739 10740 10742 10744 10746 10748 10749 10751 10752 10754 10755 10756 10758 10759 10762 10763 10762 10765 10769 10770 10772 10773 10773 10773 10774 10775 10775 10775 10775 10776 10776 10775 10776 10778 10778 10778 10779 10778 10779 10780 10779 10778 10776 10774 10772 10771 10768 10766 10763 10761 10758 10757 10755 10752 10749 10744 10739 10735 10730 10727 10722 10718 10713 10708 10703 10697 10691 10684 10678 10672 10666 10661 10655 10650 10643 10636 10630 10622
10727 10729 10731 10733 10735 10737 10739 10740 10741 10742 10743 10745 10746 10748 10750 10752 10754 10755 10757 10759 10760 10761 10762 10764 10766 10765 10764 10769 10772 10773 10774 10775 10776 10777 10777 10778 10778 10777 10777 10778 10778 10777 10778 10778 10779 10780 10780 10780 10780 10780 10779 10778 10776 10774 10771 10769 10766 10764 10762 10760 10759 10757 10754 10750 10746 10741 10737 10732 10728 10724 10720 10714 10709 10704 10698 10692 10685 10678 10672 10667 10662 10657 10652 10647 10640 10633 10626 10619
10731 10733 10735 10737 10739 10742 10743 10745 10746 10747 10747 10749 10750 10752 10754 10756 10758 10760 10762 10763 10764 10767 10767 10768 10769 10768 10769 10773 10774 10775 10777 10777 10778 10779 10780 10781 10781 10780 10779 10779 10780 10780 10780 10780 10780 10780 10781 10781 10780 10779 10778 10777 10775 10772 10769 10767 10765 10764 10762 10761 10759 10756 10753 10748 10744 10739 10735 10730 10725 10721 10717 10712 10706 10700 10693 10687 10680 10674 10669 10664 10659 10655 10650 10643 10637 10630 10624 10617
10736 10738 10740 10742 10743 10746 10747 10749 10751 10752 10752 10753 10755 10756 10758 10759 10761 10764 10766 10767 10769 10772 10773 10772 10771 10770 10774 10777 10777 10778 10778 10779 10780 10781 10782 10783 10783 10783 10782 10781 10781 10781 10781 10781 10781 10781 10782 10782 10779 10778 10777 10777 10774 10771 10768 10766 10765 10764 10762 10760 10757 10754 10751 10747 10742 10738 10733 10728 10723 10718 10713 10707 10701 10694 10688 10683 10677 10672 10667 10663 10658 10652 10646 10640 10634 10628 10621 10613
10741 10743 10744 10746 10748 10749 10751 10753 10755 10757 10758 10758 10759 10761 10762 10763 10764 10767 10769 10771 10773 10775 10777 10776 10772 10773 10779 10780 10779 10780 10780 10781 10782 10783 10783 10784 10785 10786 10785 10784 10784 10783 10782 10782 10782 10782 10782 10781 10779 10777 10777 10776 10774 10771 10768 10766 10765 10763 10760 10758 10755 10752 10748 10744 10739 10735 10730 10725 10720 10714 10708 10702 10696 10690 10685 10680 10676 10671 10666 10661 10655 10648 10642 10636 10631 10625 10617 10609
10746 10748 10749 10750 10752 10753 10755 10757 10759 10761 10763 10764 10764 10765 10767 10767 10768 10770 10772 10774 10776 10777 10780 10779 10775 10777 10782 10782 10781 10782 10781 10782 10784 10785 10786 10786 10787 10788 10788 10787 10786 10785 10784 10784 10783 10782 10783 10781 10778 10777 10776 10776 10774 10771 10768 10766 10764 10761 10759 10756 10753 10749 10745 10740 10735 10731 10726 10720 10715 10710 10704 10699 10694 10689 10683 10678 10673 10668 10663 10656 10650 10644 10638 10633 10627 10620 10612 10605
10751 10752 10753 10754 10756 10757 10759 10761 10763 10764 10767 10769 10769 10769 10770 10772 10772 10774 10776 10777 10779 10780 10782 10781 10779 10782 10784 10783 10783 10783 10783 10784 10785 10786 10787 10788 10789 10789 10790 10789 10788 10787 10785 10784 10783 10783 10784 10781 10777 10777 10776 10775 10774 10771 10768 10765 10763 10760 10757 10754 10751 10747 10742 10736 10731 10726 10721 10716 10711 10705 10700 10696 10691 10686 10681 10676 10671 10666 10660 10654 10648 10642 10636 10630 10623 10615 10608 10602
10755 10756 10757 10758 10760 10761 10763 10765 10766 10768 10770 10772 10773 10773 10774 10776 10776 10778 10779 10779 10781 10783 10784 10783 10782 10784 10785 10785 10785 10784 10785 10786 10787 10788 10789 10789 10790 10790 10789 10789 10789 10787 10786 10785 10785 10785 10784 10780 10778 10777 10776 10775 10774 10770 10766 10763 10760 10757 10754 10751 10748 10744 10739 10734 10729 10723 10718 10713 10708 10703 10697 10692 10687 10683 10679 10675 10670 10664 10658 10652 10646 10640 10633 10626 10619 10612 10606 10598
10759 10760 10761 10762 10763 10765 10767 10768 10770 10771 10773 10775 10777 10776 10778 10779 10779 10782 10782 10781 10783 10785 10786 10785 10785 10786 10786 10787 10786 10786 10787 10788 10788 10789 10790 10790 10790 10790 10790 10790 10790 10788 10788 10788 10786 10785 10783 10780 10779 10777 10776 10775 10772 10769 10765 10761 10758 10755 10752 10748 10745 10741 10737 10732 10727 10722 10717 10712 10707 10702 10696 10690 10686 10682 10679 10674 10669 10662 10656 10650 10644 10637 10630 10623 10616 10610 10603 10593
10763 10764 10765 10766 10767 10769 10770 10772 10773 10775 10776 10778 10779 10779 10781 10781 10782 10785 10784 10783 10785 10787 10787 10787 10787 10787 10787 10787 10787 10788 10790 10791 10790 10791 10791 10791 10791 10791 10791 10791 10791 10790 10789 10787 10784 10783 10782 10781 10779 10777 10776 10774 10770 10766 10763 10759 10756 10754 10751 10747 10743 10739 10734 10730 10725 10720 10716 10711 10706 10701 10696 10692 10688 10683 10678 10673 10666 10659 10652 10646 10639 10633 10626 10619 10613 10606 10597 10587
10767 10767 10768 10769 10770 10771 10773 10774 10776 10777 10778 10780 10781 10781 10783 10784 10785 10787 10786 10785 10786 10788 10789 10789 10789 10789 10788 10788 10789 10791 10792 10792 10792 10792 10792 10791 10792 10792 10792 10791 10790 10788 10786 10784 10783 10782 10781 10780 10778 10776 10774 10771 10767 10764 10760 10758 10756 10753 10750 10746 10742 10737 10732 10728 10723 10719 10714 10710 10706 10702 10697 10692 10687 10681 10675 10669 10663 10655 10648 10641 10635 10628 10621 10614 10607 10599 10589 10580
10770 10771 10772 10773 10773 10774 10776 10777 10778 10779 10780 10782 10783 10783 10784 10786 10787 10788 10788 10787 10787 10789 10789 10790 10789 10789 10789 10788 10790 10792 10792 10793 10792 10792 10792 10792 10792 10792 10791 10789 10788 10786 10784 10783 10782 10781 10780 10778 10776 10774 10771 10769 10765 10761 10759 10757 10754 10752 10749 10744 10740 10735 10730 10725 10721 10718 10714 10709 10704 10700 10696 10691 10684 10678 10672 10665 10658 10651 10644 10637 10630 10623 10615 10608 10601 10592 10583 10576
10774 10775 10775 10776 10777 10778 10778 10779 10781 10781 10783 10784 10784 10785 10786 10787 10788 10788 10789 10789 10789 10789 10790 10790 10789 10788 10788 10789 10791 10792 10792 10793 10793 10792 10792 10792 10791 10790 10789 10787 10786 10785 10783 10782 10781 10780 10779 10777 10775 10773 10770 10767 10763 10760 10758 10755 10753 10751 10747 10743 10738 10733 10727 10723 10718 10714 10711 10707 10701 10695 10691 10687 10682 10675 10668 10661 10654 10648 10641 10633 10624 10617 10610 10602 10594 10586 10579 10572
10777 10778 10779 10780 10780 10781 10781 10782 10783 10784 10785 10785 10786 10786 10787 10788 10789 10789 10790 10790 10790 10790 10790 10789 10789 10788 10789 10790 10791 10792 10792 10793 10793 10792 10792 10791 10790 10788 10787 10786 10785 10784 10782 10781 10780 10780 10778 10777 10774 10771 10769 10766 10762 10760 10757 10754 10752 10749 10744 10740 10736 10731 10725 10720 10715 10710 10706 10702 10698 10693 10687 10681 10676 10670 10664 10658 10651 10644 10636 10627 10618 10610 10604 10597 10589 10582 10576 10569
10780 10781 10782 10783 10783 10784 10784 10785 10785 10786 10787 10787 10788 10788 10789 10789 10790 10791 10791 10790 10791 10791 10790 10790 10790 10789 10789 10790 10791 10792 10792 10792 10792 10792 10791 10790 10788 10787 10786 10785 10784 10783 10781 10780 10779 10778 10777 10775 10773 10770 10767 10764 10762 10759 10756 10753 10750 10746 10741 10737 10732 10727 10722 10717 10712 10707 10702 10698 10694 10690 10686 10679 10673 10667 10661 10655 10647 10639 10630 10620 10612 10605 10599 10593 10586 10579 10573 10566
10783 10784 10784 10785 10786 10786 10787 10787 10787 10788 10788 10789 10789 10790 10791 10791 10791 10792 10792 10791 10791 10791 10790 10790 10790 10790 10790 10791 10791 10792 10792 10792 10792 10791 10790 10789 10787 10786 10785 10784 10783 10782 10781 10779 10778 10777 10776 10774 10771 10769 10766 10763 10760 10758 10754 10752 10748 10743 10739 10734 10728 10722 10718 10714 10711 10706 10701 10696 10690 10685 10680 10676 10670 10663 10657 10649 10641 10633 10625 10616 10608 10602 10596 10590 10583 10577 10571 10564
10785 10786 10787 10788 10788 10789 10789 10789 10790 10790 10790 10791 10791 10792 10792 10793 10793 10793 10793 10792 10791 10791 10791 10790 10791 10791 10791 10791 10791 10792 10792 10791 10791 10790 10789 10788 10787 10785 10784 10783 10782 10780 10780 10779 10777 10776 10775 10773 10770 10768 10765 10762 10759 10756 10753 10749 10745 10741 10736 10730 10724 10719 10714 10710 10708 10706 10702 10695 10688 10681 10674 10668 10663 10657 10650 10643 10635 10628 10621 10614 10607 10601 10594 10588 10581 10575 10568 10561
10786 10788 10789 10789 10790 10791 10791 10792 10792 10792 10793 10793 10793 10794 10794 10794 10795 10795 10794 10793 10792 10791 10791 10791 10791 10791 10791 10791 10792 10792 10791 10791 10790 10789 10788 10787 10786 10784 10783 10782 10781 10780 10779 10778 10776 10774 10773 10771 10769 10766 10764 10761 10758 10754 10751 10747 10742 10738 10733 10729 10725 10720 10715 10710 10704 10701 10698 10693 10686 10679 10671 10664 10657 10650 10643 10638 10632 10625 10619 10613 10606 10599 10593 10586 10579 10573 10566 10558
10787 10789 10790 10791 10792 10792 10793 10793 10794 10794 10794 10795 10795 10796 10796 10796 10796 10795 10795 10794 10793 10792 10792 10792 10792 10792 10792 10792 10792 10791 10791 10790 10789 10788 10787 10786 10784 10783 10782 10781 10780 10779 10777 10775 10774 10772 10771 10769 10767 10764 10761 10758 10755 10752 10749 10745 10741 10737 10734 10730 10727 10723 10717 10711 10704 10696 10691 10687 10680 10673 10667 10661 10654 10648 10641 10635 10630 10624 10617 10611 10604 10597 10590 10583 10576 10569 10562 10555
10788 10789 10790 10791 10792 10793 10794 10794 10794 10795 10795 10795 10796 10796 10796 10796 10796 10796 10795 10795 10794 10794 10793 10793 10793 10793 10792 10792 10792 10791 10790 10790 10789 10787 10786 10785 10784 10782 10781 10780 10778 10777 10775 10774 10772 10771 10769 10767 10764 10762 10759 10756 10753 10751 10748 10745 10741 10737 10733 10729 10725 10720 10715 10709 10702 10694 10686 10682 10677 10669 10662 10656 10650 10644 10638 10631 10626 10622 10616 10609 10602 10594 10587 10580 10573 10566 10559 10551
10788 10789 10791 10792 10793 10793 10794 10795 10795 10795 10795 10795 10796 10796 10796 10796 10796 10796 10796 10795 10795 10795 10794 10794 10793 10793 10793 10792 10792 10791 10790 10789 10788 10787 10786 10784 10783 10781 10779 10778 10777 10776 10774 10772 10770 10769 10767 10765 10762 10760 10757 10755 10752 10749 10746 10743 10739 10735 10730 10726 10721 10716 10711 10705 10700 10694 10684 10677 10676 10671 10662 10653 10647 10641 10635 10630 10623 10619 10614 10605 10598 10591 10583 10576 10569 10562 10555 10547
10789 10790 10791 10792 10792 10793 10794 10795 10795 10795 10795 10795 10796 10796 10796 10795 10795 10795 10795 10795 10795 10795 10794 10794 10793 10793 10793 10792 10791 10790 10789 10788 10787 10786 10785 10783 10781 10780 10778 10777 10776 10774 10772 10770 10768 10767 10764 10762 10760 10758 10755 10753 10750 10747 10744 10740 10736 10732 10727 10723 10718 10713 10708 10703 10698 10693 10686 10674 10667 10667 10664 10656 10650 10644 10638 10632 10623 10614 10608 10601 10594 10587 10579 10572 10565 10557 10549 10541
10789 10790 10791 10792 10792 10793 10794 10794 10795 10795 10795 10795 10795 10795 10795 10795 10795 10795 10795 10794 10794 10794 10794 10793 10793 10792 10792 10791 10790 10789 10788 10787 10786 10785 10783 10781 10780 10778 10777 10776 10774 10771 10769 10767 10765 10764 10762 10759 10757 10755 10752 10750 10747 10744 10741 10737 10733 10729 10725 10720 10715 10710 10706 10701 10696 10691 10686 10677 10663 10658 10658 10654 10648 10644 10637 10630 10622 10611 10604 10598 10591 10584 10576 10568 10560 10552 10543 10535
10790 10790 10791 10792 10792 10793 10793 10794 10794 10794 10794 10794 10794 10794 10794 10794 10794 10794 10794 10794 10794 10793 10793 10792 10792 10791 10790 10790 10789 10788 10787 10786 10784 10783 10781 10779 10778 10777 10775 10773 10771 10768 10766 10765 10763 10761 10759 10756 10754 10751 10749 10746 10744 10741 10738 10734 10729 10725 10721 10716 10711 10707 10702 10697 10692 10685 10680 10677 10666 10654 10650 10647 10641 10637 10632 10626 10619 10610 10602 10595 10588 10580 10572 10564 10555 10547 10538 10530
10790 10790 10791 10791 10792 10792 10793 10793 10793 10793 10793 10793 10793 10793 10793 10793 10793 10793 10793 10792 10792 10792 10791 10791 10790 10789 10789 10788 10787 10786 10785 10784 10782 10781 10779 10778 10776 10775 10773 10771 10768 10766 10764 10762 10760 10757 10755 10753 10750 10748 10746 10742 10739 10737 10734 10730 10726 10721 10716 10711 10707 10703 10698 10691 10685 10678 10671 10668 10663 10651 10643 10641 10635 10629 10623 10618 10613 10606 10598 10591 10583 10576 10567 10559 10550 10542 10534 10526
10790 10790 10791 10791 10791 10792 10792 10792 10792 10792 10792 10792 10792 10792 10792 10792 10792 10791 10791 10791 10790 10790 10790 10789 10788 10787 10787 10786 10785 10784 10782 10781 10780 10778 10777 10775 10774 10772 10770 10768 10766 10764 10762 10759 10757 10754 10752 10749 10746 10743 10741 10738 10735 10731 10729 10725 10721 10716 10711 10707 10703 10699 10695 10688 10681 10673 10665 10660 10657 10645 10634 10631 10628 10622 10616 10610 10605 10600 10593 10586 10578 10570 10562 10553 10545 10537 10529 10522
10789 10790 10790 10790 10791 10791 10791 10791 10791 10791 10791 10791 10790 10790 10790 10790 10790 10790 10789 10789 10789 10788 10788 10787 10786 10785 10784 10783 10782 10781 10780 10778 10777 10775 10774 10772 10771 10769 10767 10765 10763 10761 10759 10757 10754 10751 10749 10746 10743 10739 10736 10733 10730 10726 10723 10720 10716 10712 10707 10702 10698 10694 10689 10685 10678 10670 10661 10655 10652 10644 10630 10623 10620 10616 10612 10605 10598 10593 10588 10581 10573 10565 10556 10548 10540 10532 10525 10519
10788 10788 10789 10789 10789 10790 10790 10790 10790 10790 10789 10789 10789 10789 10789 10788 10788 10788 10787 10787 10787 10786 10785 10785 10784 10783 10782 10781 10780 10778 10777 10775 10774 10773 10771 10769 10768 10766 10764 10762 10760 10758 10756 10754 10751 10749 10746 10743 10740 10736 10732 10729 10726 10722 10718 10715 10711 10707 10702 10697 10693 10688 10684 10680 10675 10668 10659 10651 10647 10642 10631 10620 10615 10611 10606 10600 10593 10588 10582 10575 10568 10559 10551 10544 10536 10529 10522 10515
10786 10786 10787 10787 10788 10788 10788 10788 10788 10788 10788 10787 10787 10787 10787 10786 10786 10786 10785 10785 10784 10784 10783 10782 10781 10780 10779 10778 10777 10775 10774 10773 10771 10769 10768 10766 10765 10763 10761 10759 10757 10755 10753 10751 10748 10746 10743 10740 10737 10733 10728 10723 10720 10717 10713 10710 10707 10703 10699 10694 10688 10684 10679 10674 10669 10665 10657 10646 10640 10638 10631 10620 10612 10607 10601 10595 10589 10582 10575 10569 10562 10555 10548 10540 10533 10526 10519 10512
10783 10784 10784 10785 10785 10786 10786 10786 10786 10785 10785 10785 10785 10785 10784 10784 10784 10783 10783 10782 10781 10781 10780 10779 10778 10777 10776 10775 10774 10772 10771 10770 10768 10766 10765 10763 10761 10760 10758 10756 10754 10752 10749 10747 10744 10742 10739 10737 10734 10732 10729 10723 10719 10715 10711 10708 10705 10700 10695 10690 10684 10678 10673 10668 10664 10661 10655 10645 10635 10632 10630 10621 10610 10603 10597 10590 10585 10578 10569 10563 10558 10552 10546 10539 10531 10524 10516 10509
10781 10781 10782 10782 10782 10783 10783 10783 10783 10783 10783 10783 10783 10782 10782 10781 10781 10780 10780 10779 10779 10778 10777 10776 10775 10774 10773 10772 10770 10769 10768 10766 10765 10763 10761 10760 10758 10756 10754 10752 10750 10748 10746 10743 10740 10737 10735 10732 10729 10727 10726 10723 10718 10715 10711 10706 10702 10697 10690 10684 10679 10673 10667 10662 10657 10655 10652 10645 10634 10626 10625 10622 10612 10603 10596 10589 10583 10577 10569 10561 10556 10549 10543 10537 10530 10522 10514 10507
10778 10779 10779 10779 10780 10780 10780 10780 10780 10780 10780 10780 10780 10779 10779 10778 10778 10777 10777 10776 10775 10775 10774 10773 10772 10770 10769 10768 10767 10765 10764 10763 10761 10759 10758 10756 10754 10752 10750 10748 10746 10744 10741 10739 10736 10733 10729 10726 10722 10719 10718 10716 10711 10707 10704 10700 10697 10692 10685 10679 10674 10668 10662 10656 10651 10649 10646 10643 10635 10624 10616 10616 10611 10602 10596 10590 10583 10576 10568 10561 10554 10547 10541 10535 10527 10519 10512 10503
10776 10777 10777 10777 10777 10777 10777 10778 10778 10777 10777 10777 10777 10776 10776 10775 10775 10774 10774 10773 10772 10771 10770 10769 10768 10767 10766 10764 10763 10762 10760 10759 10757 10756 10754 10752 10750 10748 10746 10744 10742 10739 10737 10734 10731 10728 10725 10721 10717 10712 10709 10709 10707 10701 10697 10694 10691 10689 10683 10675 10669 10664 10658 10651 10645 10643 10640 10636 10632 10623 10611 10607 10604 10595 10589 10584 10578 10572 10565 10557 10551 10544 10537 10531 10524 10515 10507 10499
10774 10774 10774 10775 10775 10775 10775 10775 10775 10775 10774 10774 10773 10773 10773 10772 10772 10771 10770 10770 10769 10768 10767 10766 10764 10763 10762 10760 10759 10758 10756 10755 10753 10751 10750 10748 10746 10743 10741 10739 10737 10735 10732 10730 10727 10724 10721 10717 10714 10708 10702 10701 10702 10697 10692 10689 10686 10684 10680 10673 10666 10659 10653 10647 10640 10638 10636 10630 10625 10620 10610 10602 10597 10590 10583 10577 10571 10566 10559 10551 10545 10539 10532 10525 10518 10511 10502 10494
10771 10771 10771 10772 10772 10772 10772 10772 10772 10772 10771 10771 10770 10770 10769 10769 10768 10767 10766 10766 10765 10764 10763 10762 10760 10759 10758 10756 10755 10754 10752 10750 10749 10747 10745 10743 10741 10738 10736 10734 10732 10729 10727 10725 10722 10719 10717 10714 10711 10708 10699 10694 10694 10692 10688 10684 10681 10679 10676 10669 10663 10656 10649 10642 10636 10634 10634 10628 10620 10616 10609 10601 10593 10585 10578 10572 10566 10561 10554 10546 10539 10533 10526 10519 10512 10506 10498 10491
10768 10768 10768 10769 10769 10768 10769 10768 10768 10768 10768 10767 10767 10766 10766 10765 10764 10763 10762 10762 10761 10760 10759 10758 10756 10755 10754 10752 10751 10749 10747 10746 10744 10742 10740 10738 10736 10734 10731 10729 10727 10724 10721 10719 10716 10713 10712 10709 10707 10706 10700 10692 10689 10687 10681 10678 10676 10675 10672 10665 10658 10652 10645 10638 10631 10629 10630 10626 10618 10612 10606 10600 10593 10584 10574 10567 10562 10558 10551 10543 10535 10527 10521 10515 10509 10502 10495 10488
10764 10764 10765 10765 10765 10765 10765 10764 10764 10764 10763 10763 10763 10762 10762 10761 10760 10759 10758 10757 10757 10755 10754 10753 10752 10750 10749 10748 10746 10744 10743 10741 10739 10737 10735 10733 10731 10728 10726 10723 10721 10719 10715 10713 10711 10707 10706 10704 10701 10701 10699 10692 10688 10686 10680 10673 10670 10669 10667 10661 10654 10649 10643 10636 10627 10623 10624 10621 10615 10608 10602 10597 10592 10584 10574 10564 10556 10552 10547 10539 10532 10524 10517 10511 10506 10499 10493 10485
10761 10761 10761 10761 10761 10760 10761 10761 10760 10759 10759 10759 10758 10757 10757 10756 10755 10754 10753 10752 10752 10751 10749 10748 10747 10745 10744 10742 10741 10739 10738 10736 10734 10732 10730 10728 10725 10723 10721 10718 10715 10713 10710 10707 10705 10702 10699 10698 10696 10695 10695 10691 10686 10684 10680 10672 10667 10666 10664 10658 10653 10647 10641 10634 10623 10616 10616 10614 10609 10603 10597 10592 10586 10580 10573 10564 10553 10548 10544 10536 10530 10522 10514 10507 10502 10496 10490 10482